Harvey, ND

7:58 AM CDT on August 23, 2017 (GMT -0500)
Harvey

Weather History for K5H4 - November, 2011

Change the Weather History Date:

Wednesday, November 30, 2011

  Actual Average (KRUG) Record (KRUG)
Temperature  
Mean Temperature 28 °F -  
Max Temperature 32 °F 27 °F 50 °F (1969)
Min Temperature 24 °F 9 °F -18 °F (1955)
Degree Days  
Heating Degree Days 37    
Moisture  
Dew Point 27 °F    
Average Humidity 91    
Maximum Humidity 100    
Minimum Humidity 80    
Precipitation  
Precipitation 0.43 in - - ()
Sea Level Pressure  
Sea Level Pressure 30.00 in    
Wind  
Wind Speed 8 mph (NNE)    
Max Wind Speed 22 mph    
Max Gust Speed 26 mph    
Visibility 8 miles    
Events Snow    
Averages and records for this station are not official NWS values.
T = Trace of Precipitation, MM = Missing Value Source: NWS Daily Summary

Daily Weather History Graph

Daily Weather History Graph

Search for Another Location

Airport or City:

Trip Planner

Search our weather history database for the weather conditions in past years. The results will help you decide how hot, cold, wet, or windy it might be!

Date:

Astronomy

Nov. 30, 2011 Rise Set
Actual Time 8:06 AM CST 4:50 PM CST
Civil Twilight 7:30 AM CST 5:25 PM CST
Nautical Twilight 6:52 AM CST 6:04 PM CST
Astronomical Twilight 6:15 AM CST 6:41 PM CST
Moon 12:11 PM CST (11/30) 11:04 PM CST (11/30)
Length of Visible Light 9h 54m
Length of Day
8h 44m
Waxing Crescent, 34% of the Moon is Illuminated
Nov 30
Waxing Crescent
Dec 2
First Quarter
Dec 10
Full
Dec 17
Last Quarter
Dec 24
New

Hourly Weather History & Observations

Time (CST) Temp. Windchill Dew Point Humidity Pressure Visibility Wind Dir Wind Speed Gust Speed Precip Events Conditions
12:15 AM 30.2 °F 24.3 °F 26.6 °F 86% 29.92 in 10.0 mi West 5.8 mph - N/A   Clear
12:35 AM 32.0 °F 24.8 °F 26.6 °F 80% 29.91 in 10.0 mi WNW 8.1 mph - N/A   Clear
12:55 AM 32.0 °F 24.2 °F 26.6 °F 80% 29.90 in 10.0 mi West 9.2 mph - N/A   Scattered Clouds
1:15 AM 32.0 °F 25.6 °F 26.6 °F 80% 29.90 in 10.0 mi WNW 6.9 mph - N/A   Partly Cloudy
1:35 AM 32.0 °F 26.4 °F 28.4 °F 87% 29.90 in 10.0 mi WNW 5.8 mph - N/A   Clear
2:55 AM 32.0 °F 27.5 °F 28.4 °F 87% 29.91 in 10.0 mi NW 4.6 mph - N/A   Clear
3:15 AM 32.0 °F 27.5 °F 28.4 °F 87% 29.90 in 10.0 mi NW 4.6 mph - N/A   Clear
3:35 AM 32.0 °F - 28.4 °F 87% 29.89 in 10.0 mi Calm Calm - N/A   Mostly Cloudy
3:55 AM 32.0 °F 28.7 °F 28.4 °F 87% 29.89 in 10.0 mi WSW 3.5 mph - N/A   Mostly Cloudy
4:15 AM 32.0 °F - 28.4 °F 87% 29.88 in 10.0 mi Calm Calm - N/A   Mostly Cloudy
4:35 AM 32.0 °F 27.5 °F 28.4 °F 87% 29.88 in 10.0 mi North 4.6 mph - N/A   Scattered Clouds
4:55 AM 32.0 °F 26.4 °F 28.4 °F 87% 29.89 in 10.0 mi North 5.8 mph - N/A   Partly Cloudy
5:15 AM 32.0 °F 26.4 °F 28.4 °F 87% 29.89 in 10.0 mi North 5.8 mph - N/A   Mostly Cloudy
5:35 AM 30.2 °F 24.3 °F 28.4 °F 93% 29.90 in 10.0 mi North 5.8 mph - N/A   Overcast
5:55 AM 30.2 °F 25.4 °F 28.4 °F 93% 29.90 in 10.0 mi NNE 4.6 mph - N/A   Mostly Cloudy
6:15 AM 30.2 °F 26.7 °F 28.4 °F 93% 29.90 in 10.0 mi NNE 3.5 mph - N/A   Overcast
6:35 AM 30.2 °F 24.3 °F 28.4 °F 93% 29.90 in 10.0 mi North 5.8 mph - N/A   Overcast
7:15 AM 30.2 °F 23.4 °F 28.4 °F 93% 29.91 in 10.0 mi North 6.9 mph - N/A   Mostly Cloudy
7:35 AM 30.2 °F 25.4 °F 28.4 °F 93% 29.91 in 10.0 mi NNE 4.6 mph - N/A   Scattered Clouds
7:55 AM 28.4 °F 22.2 °F 28.4 °F 100% 29.92 in 10.0 mi NNE 5.8 mph - N/A   Clear
8:15 AM 28.4 °F 21.2 °F 28.4 °F 100% 29.92 in 10.0 mi NE 6.9 mph - N/A   Clear
8:35 AM 28.4 °F 21.2 °F 28.4 °F 100% 29.94 in 10.0 mi NNE 6.9 mph - N/A   Partly Cloudy
8:55 AM 30.2 °F 21.9 °F 26.6 °F 86% 29.94 in 10.0 mi NNE 9.2 mph - N/A   Mostly Cloudy
9:15 AM 30.2 °F 23.4 °F 26.6 °F 86% 29.94 in 10.0 mi NE 6.9 mph - N/A   Overcast
9:35 AM 28.4 °F 19.7 °F 26.6 °F 93% 29.94 in 3.0 mi NE 9.2 mph - N/A Snow Light Snow
9:55 AM 28.4 °F 20.4 °F 28.4 °F 100% 29.94 in 1.0 mi ENE 8.1 mph - 0.08 in Snow Light Snow
10:15 AM 28.4 °F 19.7 °F 28.4 °F 100% 29.94 in 0.8 mi ENE 9.2 mph - 0.11 in Snow Light Snow
10:35 AM 28.4 °F 20.4 °F 28.4 °F 100% 29.95 in 1.2 mi NE 8.1 mph - 0.18 in Snow Light Snow
10:55 AM 28.4 °F 19.7 °F 28.4 °F 100% 29.95 in 3.0 mi NE 9.2 mph - 0.21 in Snow Light Snow
11:15 AM 28.4 °F 19.1 °F 28.4 °F 100% 29.95 in 3.0 mi NE 10.4 mph - N/A Snow Light Snow
11:35 AM 28.4 °F 19.7 °F 28.4 °F 100% 29.96 in 1.5 mi NE 9.2 mph - 0.03 in Snow Light Snow
11:55 AM 28.4 °F 19.7 °F 28.4 °F 100% 29.96 in 2.0 mi NE 9.2 mph - 0.06 in Snow Light Snow
12:15 PM 28.4 °F 18.0 °F 28.4 °F 100% 29.96 in 1.8 mi NE 12.7 mph - 0.01 in Snow Light Snow
12:35 PM 28.4 °F 17.0 °F 28.4 °F 100% 29.97 in 1.5 mi NE 15.0 mph - 0.04 in Snow Light Snow
12:55 PM 28.4 °F 18.0 °F 28.4 °F 100% 29.97 in 1.2 mi NE 12.7 mph 16.1 mph 0.08 in Snow Light Snow
1:15 PM 28.4 °F 18.5 °F 28.4 °F 100% 29.97 in 4.0 mi NE 11.5 mph - N/A   Overcast
1:35 PM 28.4 °F 18.0 °F 28.4 °F 100% 29.98 in 10.0 mi NE 12.7 mph - N/A Snow Light Snow
1:55 PM 28.4 °F 16.6 °F 28.4 °F 100% 29.98 in 10.0 mi NE 16.1 mph 20.7 mph N/A Snow Light Snow
2:15 PM 30.2 °F 19.8 °F 28.4 °F 93% 29.99 in 10.0 mi NE 13.8 mph 18.4 mph N/A   Overcast
2:35 PM 30.2 °F 19.3 °F 28.4 °F 93% 30.00 in 10.0 mi NE 15.0 mph - N/A   Overcast
2:55 PM 30.2 °F 19.3 °F 28.4 °F 93% 30.01 in 6.0 mi NE 15.0 mph - N/A Snow Light Snow
3:15 PM 30.2 °F 18.9 °F 28.4 °F 93% 30.02 in 5.0 mi NE 16.1 mph - N/A Snow Light Snow
3:35 PM 30.2 °F 19.3 °F 26.6 °F 86% 30.04 in 10.0 mi NE 15.0 mph - N/A   Overcast
3:55 PM 30.2 °F 18.9 °F 26.6 °F 86% 30.05 in 5.0 mi NE 16.1 mph - N/A   Overcast
4:15 PM 30.2 °F 17.8 °F 26.6 °F 86% 30.06 in 7.0 mi NE 19.6 mph 25.3 mph N/A Snow Light Snow
4:35 PM 28.4 °F 19.1 °F 24.8 °F 86% 30.08 in 10.0 mi NE 10.4 mph - N/A   Mostly Cloudy
4:55 PM 28.4 °F 19.1 °F 24.8 °F 86% 30.10 in 10.0 mi NE 10.4 mph - N/A   Overcast
5:15 PM 28.4 °F 17.5 °F 24.8 °F 86% 30.10 in 10.0 mi NE 13.8 mph - N/A   Scattered Clouds
5:35 PM 28.4 °F 19.1 °F 24.8 °F 86% 30.11 in 10.0 mi NNE 10.4 mph - N/A   Mostly Cloudy
5:55 PM 28.4 °F 19.1 °F 24.8 °F 86% 30.13 in 10.0 mi NNE 10.4 mph - N/A   Scattered Clouds
6:15 PM 26.6 °F 17.5 °F 24.8 °F 93% 30.15 in 10.0 mi NNE 9.2 mph - N/A   Scattered Clouds
6:35 PM 28.4 °F 19.1 °F 24.8 °F 86% 30.16 in 10.0 mi NNE 10.4 mph - N/A   Overcast
6:55 PM 28.4 °F 18.0 °F 24.8 °F 86% 30.17 in 10.0 mi NNE 12.7 mph 19.6 mph N/A   Overcast
7:15 PM 28.4 °F 14.7 °F 24.8 °F 86% 30.19 in 10.0 mi NNE 21.9 mph 26.5 mph N/A   Overcast
7:35 PM 26.6 °F 15.2 °F 23.0 °F 86% 30.21 in 10.0 mi NNE 13.8 mph - N/A   Overcast
7:55 PM 26.6 °F 13.4 °F 23.0 °F 86% 30.23 in 10.0 mi NNE 18.4 mph - N/A   Overcast
8:15 PM 26.6 °F 14.3 °F 23.0 °F 86% 30.24 in 10.0 mi NNE 16.1 mph - N/A   Overcast
8:35 PM 24.8 °F 10.3 °F 21.2 °F 86% 30.24 in 10.0 mi NNE 20.7 mph - N/A   Overcast
8:55 PM 24.8 °F 11.5 °F 21.2 °F 86% 30.27 in 10.0 mi NNE 17.3 mph - N/A   Overcast
9:15 PM 24.8 °F 12.4 °F 19.4 °F 80% 30.28 in 10.0 mi NNE 15.0 mph 19.6 mph N/A   Mostly Cloudy
9:35 PM 23.0 °F 11.7 °F 19.4 °F 86% 30.29 in 10.0 mi NNE 11.5 mph - N/A   Mostly Cloudy
9:55 PM 23.0 °F 11.7 °F 19.4 °F 86% 30.31 in 10.0 mi NNE 11.5 mph - N/A   Overcast
10:15 PM 23.0 °F 8.7 °F 17.6 °F 80% 30.32 in 10.0 mi NNE 18.4 mph 24.2 mph N/A   Mostly Cloudy
10:35 PM 19.4 °F 7.2 °F 14.0 °F 80% 30.34 in 10.0 mi NNE 11.5 mph - N/A   Partly Cloudy
11:15 PM 17.6 °F 6.4 °F 15.8 °F 93% 30.37 in 10.0 mi North 9.2 mph - N/A   Mostly Cloudy
11:35 PM 17.6 °F 5.7 °F 15.8 °F 93% 30.38 in 10.0 mi North 10.4 mph - N/A   Scattered Clouds
11:55 PM 19.4 °F 6.0 °F 14.0 °F 80% 30.39 in 10.0 mi North 13.8 mph - N/A   Clear